Regional Weather Roundup
Issued by NWS

Home | Current Version | Previous Version | Graphics & Text | Print | Product List | Glossary Off
Versions: 1 2 3 4 5 6 7 8 9 10 11 12 13 14 15 16 17 18 19 20 21 22 23 24 25 26 27 28 29 30 31 32 33 34 35 36 37 38 39 40 41 42 43 44 45 46 47 48 49 50

000
ASUS43 KMKX 310221
RWRWI

WISCONSIN REGIONAL WEATHER ROUNDUP
NATIONAL WEATHER SERVICE MILWAUKEE/SULLIVAN WI
900 PM CDT TUE AUG 30 2016

NOTE: "FAIR" INDICATES FEW OR NO CLOUDS BELOW 12,000 FEET WITH NO
SIGNIFICANT WEATHER AND/OR OBSTRUCTIONS TO VISIBILITY.

WIZ001-002-006>008-014>016-023>028-310300-
NORTHWEST WISCONSIN

CITY           SKY/WX    TMP DP  RH WIND       PRES   REMARKS
SUPERIOR ARPT  CLEAR     58  53  85 CALM      30.16R
ASHLAND        CLEAR     60  55  83 W6        30.15R
HAYWARD        CLEAR     59  56  89 CALM      30.17R
SIREN          CLEAR     60  57  87 CALM      30.17R
CUMBERLAND     CLEAR     61  55  82 NW5       30.16R
RICE LAKE      CLEAR     63  56  79 NW3       30.17R
CHETEK         NOT AVBL
LADYSMITH      CLEAR     60  56  87 N6        30.17R
EAU CLAIRE     CLEAR     65  58  78 NW7       30.13R
MENOMONIE      CLEAR     66  58  74 W5        30.15R
NEW RICHMOND   CLEAR     63  57  80 NW5       30.17R
OSCEOLA        CLEAR     67  56  68 N3        30.19R
$$

WIZ003>005-009-010-017-018-310300-
NORTH CENTRAL WISCONSIN

CITY           SKY/WX    TMP DP  RH WIND       PRES   REMARKS
MANITOWISH WTR NOT AVBL
ARBOR VITAE    CLEAR     57  51  81 CALM      30.15S
WOODRUFF       CLEAR     57  51  81 CALM      30.15S
RHINELANDER    CLEAR     62  49  62 VRB3      30.15R
EAGLE RIVER    CLEAR     56  49  76 CALM      30.15R
LAND O LAKES   CLEAR     52  51  95 NW3       30.15S
PHILLIPS       CLEAR     58  56  95 CALM      30.15S
TOMAHAWK       CLEAR     61  51  69 N3        30.15R
MEDFORD        CLEAR     63  59  85 N7        30.13S
MERRILL        CLEAR     63  55  74 N3        30.14R
$$

WIZ029-030-035-036-043>047-310300-
CENTRAL WISCONSIN

CITY           SKY/WX    TMP DP  RH WIND       PRES   REMARKS
WAUSAU         CLEAR     69  58  67 NW5       30.09R
MOSINEE        CLEAR     66  61  82 NW7       30.12R
MARSHFIELD     CLOUDY    65  59  81 NW7       30.11R
STEVENS POINT  CLOUDY    68  62  80 CALM      30.10R
WAUPACA        PTCLDY    73  64  73 NW3       30.08R
WAUTOMA        NOT AVBL
WISC RAPIDS    PTCLDY    70  63  78 N7        30.11R
CAMP DOUGLAS   PTCLDY    64  63  94 W6        30.10R
$$

WIZ011>013-019>022-031-037>040-048>050-310300-
NORTHEAST WISCONSIN

CITY           SKY/WX    TMP DP  RH WIND       PRES   REMARKS
ANTIGO         CLEAR     64  56  76 CALM      30.12R
SHAWANO        PTCLDY    72  62  71 NW6       30.08R
OCONTO         NOT AVBL
STURGEON BAY   PTCLDY    74  65  73 N10G18    30.06R
GREEN BAY      PTCLDY    73  67  81 N6        30.05R
MANITOWOC      PTCLDY    75  66  73 NW10      30.04R
APPLETON       MOCLDY    75  63  64 N9        30.05R
CLINTONVILLE   PTCLDY    72  61  68 N3        30.08R
OSHKOSH        PTCLDY    74  65  73 W6        30.05R
$$

WIZ032>034-041-042-053>061-310300-
SOUTHWEST WISCONSIN

CITY           SKY/WX    TMP DP  RH WIND       PRES   REMARKS
LA CROSSE      MOCLDY    68  62  81 N6        30.11R
SPARTA         PTCLDY    69  64  84 CALM      30.12R
VIROQUA        MOCLDY    68  63  84 N7        30.13R
BOSCOBEL       CLEAR     70  69  97 CALM      30.09R
PRAIRIE DU CHI PTCLDY    71  68  88 CALM      30.09R
PLATTEVILLE    CLEAR     72  71  95 NW5       30.09R
$$

WIZ056-057-062-063-064-067-068-310300-
SOUTH CENTRAL WISCONSIN

CITY           SKY/WX    TMP DP  RH WIND       PRES   REMARKS
REEDSBURG      NOT AVBL
BARABOO/DELLS  CLEAR     70  65  83 W6        30.08S
LONE ROCK      CLEAR     73  66  78 NW7       30.08R
MINERAL POINT  CLEAR     72  68  88 NW5       30.09S
MADISON        MOCLDY    73  68  84 NW3       30.06R
MIDDLETON      PTCLDY    72  70  95 CALM      30.08R
WATERTOWN      PTCLDY    71  71 100 CALM      30.05S
MONROE         CLOUDY    70  68  94 W8        30.08R
JANESVILLE     MOCLDY    72  72 100 CALM      30.06R
$$

WIZ051-052-058>065-066-070>072-310300-
SOUTHEAST WISCONSIN

CITY           SKY/WX    TMP DP  RH WIND       PRES   REMARKS
MILWAUKEE      PTCLDY    73  69  87 W5        30.04R
WAUKESHA       MOCLDY    70  66  88 CALM      30.06R
MILWAUKEE/TIMM CLEAR     72  66  83 W3        30.05R
RACINE         PTCLDY    70  68  93 W5        30.06R
BURLINGTON     FOG       66  66  99 CALM      30.06R VSB 1
KENOSHA        MOCLDY    70  68  93 NW6       30.05R
FOND DU LAC    PTCLDY    74  66  76 W7        30.05R
SHEBOYGAN      CLOUDY    73  66  78 W6        30.04R
WEST BEND      PTCLDY    72  68  88 W5        30.05S
JUNEAU         PTCLDY    72  65  79 CALM      30.07R
$$

LSZ147-162-310300-
LAKE SUPERIOR

STATION/POSITION TIME  TEMP    WIND        PRES    WAVE
                       AIR SEA DIR/SP/G            HT/PER
                 (UTC) (F)     (DEG/KT/KT) (MB)    (FT/S)
W MID LAKE BUOY  0150   68 67  270/ 10/ 12 1019.2R   1/ 3
DEVILS ISLAND    0200   69     320/ 15/ 17 1020.4R
PORT WING        0100   71     320/ 11/ 13 1020.3
SAXON HARBOR     0000   68     200/  2/  3 1019.6F
$$

LMZ867-665-643>646-310300-
LAKE MICHIGAN

STATION/POSITION TIME  TEMP    WIND        PRES    WAVE
                       AIR SEA DIR/SP/G            HT/PER
                 (UTC) (F)     (DEG/KT/KT) (MB)    (FT/S)
CHAMBERS ISLAND  0100   73      30/ 16/ 19 1016.9R
S GREEN BAY BUOY 0130   75 74  360/  8/ 10 1016.8R
N MID LAKE BUOY  0150   69 72  360/ 19/ 23 1016.9R   2/ 4
NORTHPORT PIER   0100   72      10/ 17/ 20 1017.3R
SISTER BAY       0137   71      20/ 12/ 19   N/A
ALGOMA LAKESHORE 0145          340/  7/ 10   N/A
KEWAUNEE LAKESHO 0100   71                 1015.7R
SHEBOYGAN LAKESH 0200   76     240/  4/  5 1016.3R
PORT WASHINGTON  0100   76     250/  2/  4 1017.3S
ATWATER BUOY     0200   72     300/  2/  4   N/A
MILWAUKEE LAKESH 0210   75     270/  5/  7   N/A
S MID LAKE BUOY  0150   74 75  220/  4/  4 1016.8R   1
KENOSHA   LAKESH 0200   72     270/  4/  6 1017.3R
$$

TC  - TEMPERATURE IN CELSIUS
VSB - VISIBILITY IN STATUTE MILES
WCI - WIND CHILL INDEX
HX  - HEAT INDEX





USA.gov is the U.S. government's official web portal to all federal, state and local government web resources and services.